Friday, January 19, 2018, 10:33 PM EST
Back to Local

KACK, Nantucket Memorial Airport

Location: Nantucket, MA, United States Lat: 41.25
Local Time: 10:33 PM EST ( 3:33 GMT) Lon: -70.067
Time Zone: US/Eastern Elev: 49 ft

Show me the last for .
Show Coded

Time T Td Feel RH Dir Speed Gust Alt SLP Vis Weather Sky Remarks
2018-01-19 21:53 31 25 23 78 270° 8 - 29.98 29.98 10 CLR None
2018-01-19 20:53 32 26 23 78 270° 12 - 29.98 29.98 10 CLR None
2018-01-19 19:53 30 25 22 81 260° 9 - 29.96 29.96 10 CLR None
2018-01-19 18:53 31 25 22 78 260° 10 - 29.96 29.96 10 CLR 6-hr Min Temp (7pm): 30.0°F
6-hr Max Temp (7pm): 34.0°F
2018-01-19 17:53 31 25 22 78 270° 10 - 29.97 29.96 10 CLR None
2018-01-19 16:53 31 24 24 75 270° 7 - 29.96 29.96 10 CLR None
2018-01-19 15:53 32 24 24 72 270° 10 - 29.96 29.96 10 CLR None
2018-01-19 14:53 33 22 24 63 270° 12 - 29.94 29.94 10 CLR None
2018-01-19 13:53 33 22 23 63 260° 16 - 29.94 29.94 10 CLR None
2018-01-19 12:53 34 21 25 58 270° 12 - 29.94 29.94 10 CLR 6-hr Min Temp (1pm): 24.1°F
6-hr Max Temp (1pm): 34.0°F
2018-01-19 11:53 32 21 22 63 280° 14 - 29.97 29.97 10 CLR None
2018-01-19 10:53 31 21 21 66 270° 14 - 30.00 30.00 10 FEW022 None
2018-01-19 09:53 28 20 18 71 280° 12 - 30.01 30.01 10 CLR None
2018-01-19 08:53 28 21 17 74 290° 15 - 30.01 30.01 10 CLR None
2018-01-19 07:53 25 21 18 84 270° 6 - 29.98 29.98 10 CLR None
2018-01-19 06:53 25 20 16 80 290° 9 - 29.98 29.98 10 CLR 6-hr Min Temp (7am): 25.0°F
6-hr Max Temp (7am): 28.0°F
2018-01-19 05:53 25 20 14 80 300° 13 - 29.98 29.97 10 CLR None
2018-01-19 04:53 26 20 16 77 310° 12 - 29.94 29.94 10 CLR None
2018-01-19 03:53 25 20 14 80 310° 13 - 29.94 29.94 10 CLR None
2018-01-19 02:53 26 20 15 77 310° 13 - 29.94 29.94 10 CLR None
2018-01-19 01:53 26 20 17 77 300° 9 - 29.92 29.92 10 CLR None
2018-01-19 00:53 28 21 17 74 310° 14 - 29.92 29.92 10 OVC031 6-hr Min Temp (1am): 27.0°F
6-hr Max Temp (1am): 28.9°F
2018-01-18 23:53 28 21 19 74 310° 10 - 29.92 29.92 10 BKN031 24-hr Min Temp (12am): 28.0°F
24-hr Max Temp (12am): 33.1°F
2018-01-18 22:53 29 21 18 71 320° 15 - 29.92 29.92 10 OVC031 None

Support USWX by starting your Amazon purchase here.